| time (UTC) | temp F | wind direction | speed MPH | gust MPH | rain 1hr in | rain 24hr in | rain mn in | humidity % | barometer mb |
| 20260506004601 | 70 | 92 | 0.0 | 2.0 | 0.00 | 0.00 | 0.00 | 68 | 1012.0 |
| 20260506003100 | 70 | 99 | 0.0 | 4.0 | 0.00 | 0.00 | 0.00 | 66 | 1011.7 |
| 20260506001559 | 71 | 98 | 0.0 | 3.0 | 0.00 | 0.00 | 0.00 | 65 | 1011.6 |
| 20260505234605 | 72 | 46 | 0.0 | 3.0 | 0.00 | 0.00 | 0.00 | 60 | 1011.4 |
| 20260505233110 | 73 | 82 | 0.0 | 4.0 | 0.00 | 0.00 | 0.00 | 59 | 1011.4 |
| 20260505231605 | 73 | 81 | 1.0 | 3.0 | 0.00 | 0.00 | 0.00 | 57 | 1011.4 |
| 20260505230056 | 74 | 84 | 0.0 | 3.0 | 0.00 | 0.00 | 0.00 | 55 | 1011.3 |
| 20260505224556 | 75 | 48 | 0.0 | 4.0 | 0.00 | 0.00 | 0.00 | 54 | 1011.2 |
| 20260505223057 | 76 | 20 | 0.0 | 3.0 | 0.00 | 0.00 | 0.00 | 52 | 1011.2 |
| 20260505221555 | 77 | 50 | 0.0 | 3.0 | 0.00 | 0.00 | 0.00 | 51 | 1011.1 |
| 20260505220056 | 77 | 15 | 1.0 | 3.0 | 0.00 | 0.00 | 0.00 | 48 | 1011.2 |
| 20260505214558 | 78 | 44 | 1.0 | 6.0 | 0.00 | 0.00 | 0.00 | 46 | 1011.2 |
| 20260505213053 | 79 | 48 | 1.0 | 5.0 | 0.00 | 0.00 | 0.00 | 44 | 1010.9 |
| 20260505211606 | 79 | 24 | 0.0 | 10.0 | 0.00 | 0.00 | 0.00 | 43 | 1011.0 |
| 20260505210051 | 80 | 41 | 1.0 | 4.0 | 0.00 | 0.00 | 0.00 | 40 | 1010.9 |
| 20260505204552 | 80 | 13 | 1.0 | 5.0 | 0.00 | 0.00 | 0.00 | 40 | 1011.1 |
| 20260505203050 | 81 | 28 | 0.0 | 4.0 | 0.00 | 0.00 | 0.00 | 40 | 1011.2 |
| 20260505201556 | 81 | 117 | 1.0 | 4.0 | 0.00 | 0.00 | 0.00 | 39 | 1011.4 |
| 20260505200049 | 82 | 126 | 1.0 | 3.0 | 0.00 | 0.00 | 0.00 | 38 | 1011.6 |
| 20260505194556 | 82 | 157 | 1.0 | 6.0 | 0.00 | 0.00 | 0.00 | 37 | 1011.8 |
| 20260505193044 | 83 | 15 | 1.0 | 8.0 | 0.00 | 0.00 | 0.00 | 38 | 1011.9 |
| 20260505191541 | 84 | 64 | 1.0 | 3.0 | 0.00 | 0.00 | 0.00 | 38 | 1012.0 |
| 20260505190040 | 83 | 172 | 0.0 | 4.0 | 0.00 | 0.00 | 0.00 | 39 | 1012.1 |
| 20260505184538 | 83 | 164 | 0.0 | 4.0 | 0.00 | 0.00 | 0.00 | 39 | 1012.2 |
| 20260505183040 | 83 | 76 | 0.0 | 4.0 | 0.00 | 0.00 | 0.00 | 40 | 1012.4 |
| 20260505181537 | 83 | 96 | 0.0 | 3.0 | 0.00 | 0.00 | 0.00 | 41 | 1012.4 |
| 20260505180039 | 83 | 65 | 1.0 | 3.0 | 0.00 | 0.00 | 0.00 | 41 | 1012.8 |
| 20260505174540 | 82 | 43 | 1.0 | 3.0 | 0.00 | 0.00 | 0.00 | 42 | 1012.9 |
| 20260505173034 | 83 | 97 | 0.0 | 3.0 | 0.00 | 0.00 | 0.00 | 43 | 1013.1 |
| 20260505171533 | 82 | 70 | 1.0 | 3.0 | 0.00 | 0.00 | 0.00 | 43 | 1013.1 |
| 20260505170027 | 81 | 131 | 0.0 | 2.0 | 0.00 | 0.00 | 0.00 | 44 | 1013.1 |
| 20260505164526 | 80 | 134 | 0.0 | 3.0 | 0.00 | 0.00 | 0.00 | 45 | 1013.3 |
| 20260505163024 | 80 | 154 | 0.0 | 4.0 | 0.00 | 0.00 | 0.00 | 45 | 1013.4 |
| 20260505161523 | 80 | 92 | 0.0 | 2.0 | 0.00 | 0.00 | 0.00 | 47 | 1013.5 |
| 20260505153012 | 75 | 117 | 0.0 | 3.0 | 0.00 | 0.00 | 0.00 | 51 | 1013.6 |
| 20260505151509 | 74 | 125 | 0.0 | 2.0 | 0.00 | 0.00 | 0.00 | 54 | 1013.6 |
| 20260505130105 | 66 | 105 | 0.0 | 6.0 | 0.00 | 0.00 | 0.00 | 65 | 1013.7 |
| 20260505124546 | 65 | 121 | 0.0 | 4.0 | 0.00 | 0.00 | 0.00 | 67 | 1013.7 |
| 20260505123044 | 64 | 101 | 0.0 | 1.0 | 0.00 | 0.00 | 0.00 | 69 | 1013.6 |
| 20260505121539 | 64 | 113 | 0.0 | 1.0 | 0.00 | 0.00 | 0.00 | 71 | 1013.5 |
| 20260505120039 | 63 | 140 | 0.0 | 1.0 | 0.00 | 0.00 | 0.00 | 74 | 1013.4 |
| 20260505114538 | 62 | 106 | 0.0 | 1.0 | 0.00 | 0.00 | 0.00 | 76 | 1013.3 |
| 20260505113039 | 61 | 93 | 0.0 | 2.0 | 0.00 | 0.00 | 0.00 | 77 | 1013.2 |
| 20260505111540 | 61 | 117 | 0.0 | 1.0 | 0.00 | 0.00 | 0.00 | 78 | 1013.2 |
| 20260505101532 | 60 | 144 | 0.0 | 0.0 | 0.00 | 0.00 | 0.00 | 78 | 1012.7 |
| 20260505100032 | 60 | 144 | 0.0 | 0.0 | 0.00 | 0.00 | 0.00 | 77 | 1012.5 |
| 20260505094529 | 60 | 144 | 0.0 | 1.0 | 0.00 | 0.00 | 0.00 | 77 | 1012.5 |
| 20260505093027 | 60 | 158 | 0.0 | 0.0 | 0.00 | 0.00 | 0.00 | 77 | 1012.4 |
| 20260505091525 | 61 | 160 | 0.0 | 1.0 | 0.00 | 0.00 | 0.00 | 76 | 1012.5 |
| 20260505090025 | 61 | 146 | 0.0 | 1.0 | 0.00 | 0.00 | 0.00 | 76 | 1012.4 |
| 20260505084526 | 61 | 150 | 0.0 | 0.0 | 0.00 | 0.00 | 0.00 | 75 | 1012.3 |
| 20260505083021 | 61 | 148 | 0.0 | 0.0 | 0.00 | 0.00 | 0.00 | 74 | 1012.4 |
| 20260505081529 | 62 | 149 | 0.0 | 0.0 | 0.00 | 0.00 | 0.00 | 74 | 1012.4 |
| 20260505080020 | 62 | 121 | 0.0 | 1.0 | 0.00 | 0.00 | 0.00 | 73 | 1012.4 |
| 20260505074518 | 62 | 101 | 0.0 | 1.0 | 0.00 | 0.00 | 0.00 | 73 | 1012.4 |
| 20260505073015 | 63 | 111 | 0.0 | 1.0 | 0.00 | 0.00 | 0.00 | 72 | 1012.3 |
| 20260505071531 | 63 | 106 | 0.0 | 1.0 | 0.00 | 0.00 | 0.00 | 72 | 1012.2 |
| 20260505070014 | 63 | 84 | 0.0 | 1.0 | 0.00 | 0.00 | 0.00 | 71 | 1012.3 |
| 20260505064520 | 64 | 103 | 0.0 | 2.0 | 0.00 | 0.00 | 0.00 | 71 | 1012.0 |
| 20260505063015 | 64 | 74 | 0.0 | 2.0 | 0.00 | 0.00 | 0.00 | 71 | 1012.0 |
| 20260505061512 | 64 | 124 | 0.0 | 2.0 | 0.00 | 0.00 | 0.00 | 71 | 1012.2 |
| 20260505060011 | 64 | 90 | 0.0 | 2.0 | 0.00 | 0.00 | 0.00 | 71 | 1012.2 |
| 20260505054511 | 64 | 83 | 0.0 | 2.0 | 0.00 | 0.00 | 0.00 | 71 | 1012.1 |
| 20260505053012 | 64 | 142 | 0.0 | 2.0 | 0.00 | 0.00 | 0.00 | 71 | 1012.1 |
| 20260505051512 | 65 | 74 | 0.0 | 3.0 | 0.00 | 0.00 | 0.00 | 70 | 1012.0 |
| 20260505041507 | 64 | 135 | 0.0 | 1.0 | 0.00 | 0.00 | 0.00 | 71 | 1012.0 |
| 20260505040005 | 63 | 112 | 0.0 | 2.0 | 0.00 | 0.00 | 0.00 | 73 | 1012.0 |
| 20260505034501 | 62 | 93 | 0.0 | 1.0 | 0.00 | 0.00 | 0.00 | 76 | 1012.0 |
| 20260505033102 | 61 | 98 | 0.0 | 1.0 | 0.00 | 0.00 | 0.00 | 78 | 1012.0 |
| 20260505031601 | 61 | 85 | 0.0 | 0.0 | 0.00 | 0.00 | 0.00 | 78 | 1011.9 |
| 20260505030104 | 60 | 84 | 0.0 | 2.0 | 0.00 | 0.00 | 0.00 | 79 | 1012.0 |
| 20260505024558 | 60 | 93 | 0.0 | 1.0 | 0.00 | 0.00 | 0.00 | 78 | 1011.9 |
| 20260505023108 | 60 | 82 | 0.0 | 1.0 | 0.00 | 0.00 | 0.00 | 77 | 1012.4 |
| 20260505021601 | 61 | 82 | 0.0 | 1.0 | 0.00 | 0.00 | 0.00 | 75 | 1011.8 |
| 20260505020059 | 61 | 82 | 0.0 | 1.0 | 0.00 | 0.00 | 0.00 | 74 | 1011.9 |
| 20260505014558 | 62 | 82 | 0.0 | 1.0 | 0.00 | 0.00 | 0.00 | 72 | 1012.0 |
| 20260505013056 | 62 | 80 | 0.0 | 1.0 | 0.00 | 0.00 | 0.00 | 70 | 1011.9 |
| 20260505011557 | 63 | 80 | 0.0 | 1.0 | 0.00 | 0.00 | 0.00 | 69 | 1011.8 |